Location: Zagreb
(45.8000°N, 16.0000°E)
Time: 20:17:35
(UTC+01:00)

CUTE-I - Pass Details

Date: 07 November 2020
Orbit: 811 x 824 km, 98.7° (Epoch: 01 December)

Event Time Altitude Azimuth Distance (km) Brightness Sun altitude
Rises 17:05:04 0° 158° (SSE) 3,319 ? -5.9°
Reaches altitude 10° 17:07:23 10° 157° (SSE) 2,393 ? -6.3°
Maximum altitude 17:12:40 74° 73° (ENE) 850 ? -7.2°
Drops below altitude 10° 17:17:59 10° 349° (N) 2,416 ? -8.1°
Sets 17:20:21 0° 348° (NNW) 3,354 ? -8.5°
